[[[{"header":{"parameterUnit":"kt","parameterCategory":2,"dx":1,"dy":1,"la1":30.253999710083008,"la2":30.299108505249023,"lo1":-89.0895004272461,"lo2":-89.04439544677734,"nx":28,"ny":28,"refTime":"2022-10-29T21:00:00:Z","depth":"0","parameterNumber":2,"parameterNumberName":"U-component_of_CURRENTS"},"data":[-0.3789,-0.361,-0.3641,-0.3143,-0.3028,-0.2531,-0.2325,-0.1941,-0.1623,-0.0883,-0.0488,-0.0405,-0.1105,-0.1898,-0.2043,-0.1942,-0.1989,-0.1869,-0.2018,-0.2169,-0.2226,-0.228,-0.2277,-0.1749,-0.175,-0.172,-0.172,-0.1721,-0.4076,-0.4097,-0.4022,-0.3818,-0.3605,-0.3655,-0.3437,-0.3136,-0.267,-0.2403,-0.2087,-0.1923,-0.1864,-0.2084,-0.2203,-0.2108,-0.211,-0.209,-0.2211,-0.2178,-0.2328,-0.2306,-0.1776,-0.1776,-0.1776,-0.1776,-0.1776,-0.1776,-0.4558,-0.4507,-0.4524,-0.438,-0.4293,-0.4062,-0.3791,-0.3755,-0.3486,-0.3174,-0.3421,-0.2931,-0.3186,-0.2853,-0.2765,-0.2631,-0.2816,-0.2571,-0.2692,-0.2811,-0.2718,-0.2931,-0.2504,-0.2507,-0.251,-0.2513,-0.2515,0,-0.4848,-0.4917,-0.4927,-0.4815,-0.4737,-0.4564,-0.4483,-0.4411,-0.4441,-0.4336,-0.4161,-0.3978,-0.3836,-0.3498,-0.3322,-0.3185,-0.3381,-0.3286,-0.3325,-0.3098,-0.3178,-0.3076,-0.3438,-0.3078,-0.3085,-0.309,-0.3093,-0.3096,-0.5112,-0.5142,-0.5174,-0.5114,-0.5138,-0.4995,-0.4902,-0.4896,-0.4849,-0.4788,-0.4735,-0.4616,-0.4393,-0.41,-0.3981,-0.3741,-0.3835,-0.3451,-0.3519,-0.3526,-0.3596,-0.3715,-0.3658,-0.3169,-0.3159,-0.3152,-0.3146,0,-0.5232,-0.5382,-0.5357,-0.5427,-0.5381,-0.5261,-0.514,-0.5042,-0.505,-0.4903,-0.4886,-0.4888,-0.4729,-0.4669,-0.4488,-0.4421,-0.4135,-0.4117,-0.3909,-0.3827,-0.3618,-0.3721,-0.3497,-0.3396,-0.3799,-0.3794,-0.3789,0,-0.5435,-0.5405,-0.5554,-0.5564,-0.5436,-0.5505,-0.5328,-0.5268,-0.5219,-0.5083,-0.5123,-0.5013,-0.5,-0.4876,-0.4795,-0.4545,-0.459,-0.4415,-0.4353,-0.4179,-0.4152,-0.4081,-0.4172,-0.4537,-0.4539,-0.4541,-0.4543,0,-0.5504,-0.5592,-0.5623,-0.5639,-0.5683,-0.5635,-0.5585,-0.5502,-0.5401,-0.53,-0.5262,-0.5129,-0.5041,-0.4955,-0.4846,-0.4911,-0.4658,-0.4704,-0.4454,-0.4442,-0.4169,-0.4136,-0.396,-0.4545,-0.4546,-0.4546,-0.4547,0,-0.5651,-0.5719,-0.578,-0.5746,-0.5739,-0.5744,-0.5607,-0.5573,-0.5471,-0.5441,-0.5346,-0.53,-0.5142,-0.5194,-0.4984,-0.5067,-0.4962,-0.4898,-0.4886,-0.4712,-0.4684,-0.4264,-0.4097,-0.4091,-0.4743,-0.4745,-0.4747,0,-0.5683,-0.5765,-0.5835,-0.5824,-0.5843,-0.5835,-0.5816,-0.575,-0.5715,-0.561,-0.5508,-0.5396,-0.54,-0.5299,-0.5232,-0.5108,-0.5003,-0.5113,-0.488,-0.4871,-0.4737,-0.4647,-0.4407,-0.4156,-0.4778,-0.4775,-0.4773,0,-0.568,-0.5824,-0.5814,-0.5796,-0.5869,-0.5834,-0.5851,-0.5792,-0.57,-0.5712,-0.5592,-0.5496,-0.5414,-0.5335,-0.5217,-0.514,-0.5047,-0.5135,-0.5129,-0.5033,-0.4859,-0.4708,-0.4672,-0.5049,-0.5046,-0.5044,-0.4798,0,-0.5758,-0.5792,-0.5816,-0.5843,-0.5849,-0.587,-0.5861,-0.5829,-0.5807,-0.5762,-0.565,-0.5565,-0.5419,-0.5382,-0.5333,-0.5185,-0.5168,-0.5165,-0.5099,-0.5094,-0.4986,-0.4967,-0.518,-0.5179,-0.5178,-0.5178,0,0,-0.5707,-0.5751,-0.5758,-0.5797,-0.5792,-0.5775,-0.5795,-0.578,-0.5741,-0.5672,-0.5709,-0.5537,-0.545,-0.5268,-0.5266,-0.524,-0.5192,-0.518,-0.511,-0.5103,-0.5097,-0.4994,-0.4976,-0.5176,-0.5176,-0.5176,-0.5175,0,-0.5723,-0.5723,-0.575,-0.5762,-0.5765,-0.5759,-0.5766,-0.5755,-0.571,-0.5708,-0.5602,-0.5511,-0.5451,-0.5312,-0.5247,-0.5242,-0.5145,-0.5221,-0.519,-0.5107,-0.5101,-0.5095,-0.4994,-0.4979,-0.5174,-0.5174,-0.5174,0,-0.5696,-0.5705,-0.5706,-0.5729,-0.5711,-0.5738,-0.5686,-0.5694,-0.568,-0.5585,-0.5537,-0.5477,-0.5371,-0.53,-0.526,-0.5218,-0.5083,-0.5135,-0.5139,-0.5132,-0.5044,-0.5038,-0.5033,-0.5096,-0.5096,-0.5096,0,0,-0.5696,-0.571,-0.5716,-0.5727,-0.5737,-0.5699,-0.5695,-0.5666,-0.5629,-0.5602,-0.5527,-0.5437,-0.5371,-0.5301,-0.5258,-0.5183,-0.5121,-0.5128,-0.5132,-0.5135,-0.5131,-0.5044,-0.5039,-0.5095,-0.5095,-0.5095,0,0,-0.5686,-0.5697,-0.5661,-0.5697,-0.5687,-0.5669,-0.567,-0.5638,-0.5586,-0.556,-0.5459,-0.5432,-0.5378,-0.5307,-0.532,-0.5184,-0.5167,-0.5164,-0.5211,-0.5214,-0.5218,-0.5226,-0.5213,0,0,0,0,0,-0.5665,-0.5706,-0.5673,-0.5676,-0.5668,-0.5689,-0.5684,-0.563,-0.5584,-0.5587,-0.5513,-0.5433,-0.5287,-0.5297,-0.5277,-0.5221,-0.5094,-0.5094,-0.5094,-0.5142,-0.5147,-0.5151,0,0,0,0,0,0,-0.5666,-0.567,-0.5673,-0.5661,-0.5659,-0.5687,-0.5616,-0.5601,-0.5582,-0.5569,-0.5455,-0.543,-0.5358,-0.53,-0.5283,-0.5231,-0.5219,-0.5094,-0.5094,-0.5094,-0.5144,-0.5148,-0.5151,0,0,0,0,0,-0.5667,-0.567,-0.5672,-0.5659,-0.5657,-0.5603,-0.5612,-0.5599,-0.557,-0.5477,-0.5452,-0.5529,-0.5362,-0.5339,-0.5289,-0.524,-0.523,-0.5224,-0.5094,-0.5094,-0.5094,-0.5146,0,0,0,0,0,0,-0.5667,-0.5646,-0.567,-0.5667,-0.5634,-0.5598,-0.5591,-0.5599,-0.5474,-0.5456,-0.5547,-0.5538,-0.5365,-0.5347,-0.533,-0.5246,-0.5238,-0.5232,-0.5229,-0.5094,-0.5094,-0.5094,0,0,0,0,0,0,-0.5644,-0.5644,-0.5668,-0.564,-0.5633,-0.5594,-0.5588,-0.5538,-0.547,-0.5548,-0.554,-0.5544,-0.5362,-0.5353,-0.5339,-0.5265,-0.5245,-0.5239,-0.5235,-0.5233,-0.5094,-0.5094,0,0,0,0,0,0,-0.5643,-0.5642,-0.5639,-0.5634,-0.5628,-0.5587,-0.5543,-0.5516,-0.5516,-0.5551,-0.5508,-0.5505,-0.5368,-0.5354,-0.5346,-0.5279,-0.5269,-0.5245,-0.5241,-0.5238,-0.5236,0,0,0,0,0,0,0,-0.5642,-0.5659,-0.5695,-0.563,-0.5624,-0.5643,-0.5642,-0.564,-0.5516,-0.5512,-0.5509,-0.5506,-0.5277,-0.5271,-0.5265,-0.529,0,0,-0.5245,-0.5243,0,0,0,0,0,0,0,0,-0.5658,-0.5659,-0.5695,-0.5695,-0.5694,-0.5643,-0.5642,-0.564,-0.5515,-0.5512,-0.551,-0.5507,-0.5276,-0.5271,-0.5266,0,0,0,0,0,0,0,0,0,0,0,0,0,0,0,-0.5695,-0.5695,0,-0.5643,-0.5642,-0.5641,-0.5515,-0.5512,-0.551,-0.5508,-0.5274,-0.527,-0.5266,0,0,0,0,0,0,0,0,0,0,0,0,0,0,0,0,0,0,0,0,0,0,0,0,0,0,0,0,0,0,0,0,0,0,0,0,0,0,0,0,0,0,0,0,0,0,0,0,0,0,0,0,0,0,0,0,0,0,0,0,0,0,0,0,0,0,0,0,0]}],[{"header":{"parameterUnit":"kt","parameterCategory":2,"dx":1,"dy":1,"la1":30.253999710083008,"la2":30.299108505249023,"lo1":-89.0895004272461,"lo2":-89.04439544677734,"nx":28,"ny":28,"refTime":"2022-10-29T21:00:00:Z","depth":"0","parameterNumber":3,"parameterNumberName":"V-component_of_CURRENTS"},"data":[-0.2624,-0.268,-0.2714,-0.241,-0.2241,-0.1745,-0.1438,-0.0926,-0.0436,0.0602,0.138,0.2015,0.2654,0.3391,0.387,0.3931,0.4264,0.4173,0.4342,0.3866,0.3794,0.3725,0.3746,0.4417,0.4419,0.5097,0.5103,0.5108,-0.2648,-0.2718,-0.2742,-0.2584,-0.2388,-0.227,-0.1861,-0.1504,-0.0931,-0.0382,0.0274,0.1414,0.1951,0.2376,0.2857,0.3183,0.3252,0.3306,0.339,0.3508,0.2783,0.2777,0.3254,0.3254,0.3253,0.3253,0.3253,0.3252,-0.2657,-0.2727,-0.2751,-0.268,-0.2552,-0.2254,-0.199,-0.1709,-0.129,-0.0674,-0.0368,0.0339,0.0963,0.163,0.1886,0.2316,0.2182,0.2478,0.2541,0.2534,0.2715,0.1796,0.2179,0.2178,0.2176,0.2175,0.2174,0,-0.2594,-0.2613,-0.2644,-0.2603,-0.2516,-0.23,-0.2081,-0.1948,-0.1537,-0.1247,-0.0697,-0.0355,0.022,0.0814,0.1247,0.1497,0.1793,0.1669,0.1958,0.2218,0.2217,0.2443,0.1479,0.1806,0.1802,0.1799,0.1797,0.1796,-0.2405,-0.2505,-0.2458,-0.2432,-0.2406,-0.2271,-0.213,-0.1841,-0.1661,-0.1192,-0.106,-0.0656,-0.0255,0.0388,0.079,0.1241,0.1416,0.1568,0.1526,0.176,0.1892,0.1898,0.2041,0.1754,0.1759,0.1764,0.1767,0,-0.2281,-0.229,-0.235,-0.2268,-0.2197,-0.2156,-0.1863,-0.1725,-0.1497,-0.1207,-0.1136,-0.076,-0.0362,-0.0036,0.0424,0.0629,0.1184,0.1121,0.1151,0.1236,0.1686,0.1745,0.2195,0.2404,0.1433,0.1437,0.144,0,-0.2064,-0.2099,-0.2059,-0.212,-0.207,-0.1931,-0.179,-0.1608,-0.1351,-0.1126,-0.0919,-0.07,-0.0374,-0.008,0.0165,0.0578,0.0587,0.0826,0.0913,0.0981,0.099,0.1374,0.1453,0.0837,0.0835,0.0833,0.0831,0,-0.1838,-0.1871,-0.1964,-0.1958,-0.1852,-0.1802,-0.1673,-0.1423,-0.1268,-0.1004,-0.0881,-0.0593,-0.0418,-0.0165,0.0151,0.0118,0.0557,0.057,0.0812,0.0818,0.1064,0.1085,0.1473,0.0828,0.0828,0.0827,0.0826,0,-0.1653,-0.1686,-0.1834,-0.1696,-0.1675,-0.1695,-0.1448,-0.138,-0.1107,-0.0976,-0.0767,-0.0591,-0.0364,-0.0321,0.0064,-0.0034,0.0158,0.0318,0.0334,0.0507,0.0569,0.0927,0.0968,0.1257,0.052,0.0517,0.0514,0,-0.1433,-0.1576,-0.1485,-0.1557,-0.1592,-0.1381,-0.1352,-0.12,-0.1045,-0.0889,-0.0665,-0.0532,-0.045,-0.0343,-0.0212,0.0032,0.015,0.0005,0.0442,0.0455,0.0544,0.0528,0.0642,0.0905,0.0472,0.0477,0.048,0,-0.1234,-0.1218,-0.1221,-0.121,-0.1142,-0.1108,-0.1096,-0.097,-0.086,-0.0799,-0.0661,-0.055,-0.0382,-0.0287,-0.0129,-0.0008,0.0088,0.0078,0.0091,0.0213,0.0396,0.0462,0.0497,0.016,0.0164,0.0167,0.0447,0,-0.1055,-0.1041,-0.1075,-0.1043,-0.101,-0.1032,-0.0899,-0.0847,-0.0737,-0.0629,-0.0499,-0.036,-0.0186,-0.0171,-0.0083,0.0037,0.0093,0.0155,0.0301,0.0219,0.0345,0.037,0.0138,0.0143,0.0146,0.0149,0,0,-0.0854,-0.0835,-0.068,-0.0738,-0.0703,-0.0528,-0.0588,-0.0528,-0.0431,-0.034,-0.0335,-0.0119,-0.0016,0.013,0.0083,0.011,0.0211,0.0189,0.022,0.0226,0.0233,0.0351,0.0371,0.0155,0.0156,0.0157,0.0158,0,-0.076,-0.0604,-0.0647,-0.0616,-0.0541,-0.0456,-0.0463,-0.0357,-0.0288,-0.0292,-0.0119,-0.0025,0.0043,0.0186,0.026,0.0149,0.0345,0.0151,0.0094,0.0242,0.0244,0.0247,0.0361,0.0376,0.0166,0.0166,0.0165,0,-0.0603,-0.0503,-0.0472,-0.0369,-0.0306,-0.0332,-0.0162,-0.0147,-0.015,0.0057,0.0067,0.0172,0.0314,0.0333,0.0355,0.0423,0.0489,0.0431,0.0414,0.0457,0.0621,0.062,0.0618,0.0649,0.065,0.0651,0,0,-0.0546,-0.0495,-0.0359,-0.0336,-0.031,-0.0184,-0.016,-0.0084,0.0003,0.0038,0.0147,0.0262,0.0337,0.0394,0.0456,0.0477,0.0612,0.0484,0.0461,0.0442,0.0473,0.063,0.0627,0.0654,0.0655,0.0655,0,0,-0.0522,-0.0344,-0.0259,-0.0211,-0.0165,-0.0041,-0.0055,0.0032,0.0096,0.0132,0.0304,0.0339,0.0358,0.0455,0.0485,0.0526,0.0625,0.0621,0.047,0.0444,0.0422,0.0445,0.0669,0,0,0,0,0,-0.0359,-0.0368,-0.0292,-0.0262,-0.0092,-0.0073,-0.0057,0.0058,0.0152,0.0113,0.0232,0.0361,0.0498,0.0528,0.0556,0.0542,0.0705,0.0696,0.0687,0.0496,0.0467,0.0442,0,0,0,0,0,0,-0.0347,-0.0309,-0.0292,-0.0159,-0.012,-0.0068,0.0085,0.0115,0.0156,0.0173,0.0334,0.0366,0.0482,0.0526,0.0548,0.0532,0.0662,0.0701,0.0694,0.0687,0.0486,0.0462,0.0441,0,0,0,0,0,-0.0336,-0.0306,-0.0048,-0.016,-0.0126,0.0018,0.0088,0.0114,0.0147,0.0316,0.035,0.0232,0.0477,0.0506,0.054,0.0519,0.0648,0.0656,0.0696,0.069,0.0685,0.0474,0,0,0,0,0,0,-0.0329,-0.0297,-0.004,-0.0028,-0.0132,0.0015,0.0048,0.0112,0.0291,0.0322,0.0223,0.0235,0.0472,0.0496,0.0518,0.0505,0.0636,0.0644,0.0649,0.0692,0.0687,0.0683,0,0,0,0,0,0,-0.0313,-0.0287,-0.0034,-0.0004,0.0013,0.0011,0.004,0.0109,0.0293,0.0189,0.0204,0.0227,0.0464,0.0489,0.0506,0.0606,0.0627,0.0635,0.064,0.0643,0.0688,0.0684,0,0,0,0,0,0,-0.0301,-0.0279,-0.0006,0.0006,0.0021,0.0163,0.0075,0.0258,0.0276,0.018,0.0286,0.0291,0.0455,0.0474,0.0498,0.0588,0.0601,0.0628,0.0633,0.0636,0.0639,0,0,0,0,0,0,0,-0.0292,-0.0451,-0.0109,0.0014,0.0028,0.0084,0.0087,0.009,0.0277,0.0281,0.0285,0.0289,0.0585,0.0593,0.0601,0.0574,0,0,0.0627,0.0631,0,0,0,0,0,0,0,0,-0.0459,-0.0453,-0.0109,-0.0106,-0.0103,0.0085,0.0087,0.009,0.0278,0.0281,0.0284,0.0287,0.0587,0.0594,0.06,0,0,0,0,0,0,0,0,0,0,0,0,0,0,0,-0.0108,-0.0106,0,0.0085,0.0087,0.0089,0.0278,0.0281,0.0283,0.0286,0.0589,0.0594,0.06,0,0,0,0,0,0,0,0,0,0,0,0,0,0,0,0,0,0,0,0,0,0,0,0,0,0,0,0,0,0,0,0,0,0,0,0,0,0,0,0,0,0,0,0,0,0,0,0,0,0,0,0,0,0,0,0,0,0,0,0,0,0,0,0,0,0,0,0,0]}]],[[{"header":{"parameterUnit":"kt","parameterCategory":2,"dx":1,"dy":1,"la1":30.253999710083008,"la2":30.299108505249023,"lo1":-89.0895004272461,"lo2":-89.04439544677734,"nx":28,"ny":28,"refTime":"2022-10-29T21:00:00:Z","depth":"2","parameterNumber":2,"parameterNumberName":"U-component_of_CURRENTS"},"data":[-0.2935,-0.2857,-0.2869,-0.2674,-0.2679,-0.2499,-0.244,-0.2371,-0.2349,-0.2232,-0.2171,-0.2363,-0.2288,-0.1844,-0.1683,-0.1425,-0.1693,-0.1342,-0.2147,-0.2271,-0.2336,-0.2498,-0.2488,0,0,0,0,0,-0.3065,-0.3081,-0.3113,-0.3152,-0.3097,-0.3262,-0.33,-0.3189,-0.3096,-0.3181,-0.312,-0.2735,-0.2454,-0.2339,-0.1964,-0.1892,-0.1912,-0.1843,-0.1886,-0.196,-0.2028,-0.1971,-0.1291,-0.1289,-0.1287,-0.1285,0,0,-0.332,-0.3312,-0.3409,-0.3461,-0.3554,-0.3581,-0.353,-0.3673,-0.3689,-0.365,-0.3801,-0.3569,-0.3449,-0.2903,-0.2688,-0.2543,-0.279,-0.2718,-0.2749,-0.2788,-0.2762,-0.2702,-0.2297,-0.2301,-0.2305,-0.2309,-0.2312,0,-0.3513,-0.3583,-0.3659,-0.3753,-0.3838,-0.3926,-0.4042,-0.4066,-0.4264,-0.4281,-0.4231,-0.4134,-0.3895,-0.3529,-0.3296,-0.3156,-0.3387,-0.3172,-0.3794,-0.3228,-0.3172,-0.3126,-0.317,-0.2867,-0.2874,-0.288,-0.2884,-0.2887,-0.3697,-0.3742,-0.3949,-0.399,-0.4077,-0.4197,-0.4264,-0.4473,-0.4503,-0.4606,-0.4562,-0.4494,-0.4347,-0.4098,-0.3937,-0.3713,-0.3919,-0.3357,-0.3407,-0.3965,-0.3913,-0.3931,-0.3948,-0.2971,-0.2961,-0.2952,-0.2945,0,-0.3768,-0.393,-0.4033,-0.4244,-0.4309,-0.4361,-0.4537,-0.4577,-0.4699,-0.47,-0.4708,-0.4763,-0.4624,-0.4567,-0.4425,-0.4358,-0.4195,-0.4089,-0.3763,-0.3658,-0.398,-0.3989,-0.3801,-0.3794,-0.3787,-0.3782,-0.3778,0,-0.3927,-0.3996,-0.4211,-0.4261,-0.4359,-0.4524,-0.4601,-0.4698,-0.4789,-0.4798,-0.4888,-0.4846,-0.4852,-0.4751,-0.4676,-0.4449,-0.4521,-0.4326,-0.4253,-0.3998,-0.396,-0.4483,-0.4484,-0.4493,-0.4494,-0.4496,-0.4497,0,-0.3939,-0.4148,-0.425,-0.4314,-0.4511,-0.4575,-0.467,-0.4775,-0.482,-0.4887,-0.488,-0.4908,-0.4869,-0.4812,-0.4703,-0.474,-0.4557,-0.4577,-0.4329,-0.4313,-0.3984,-0.3939,-0.45,-0.45,-0.45,-0.4501,-0.4502,0,-0.404,-0.4143,-0.4281,-0.4451,-0.4493,-0.4572,-0.4686,-0.4772,-0.4846,-0.4865,-0.4896,-0.4881,-0.4899,-0.4873,-0.4795,-0.483,-0.4737,-0.4673,-0.4662,-0.4479,-0.4391,-0.3901,-0.3807,-0.4479,-0.448,-0.4481,-0.4482,0,-0.4009,-0.4165,-0.4259,-0.4387,-0.4468,-0.4556,-0.4638,-0.4719,-0.4756,-0.4793,-0.4806,-0.4827,-0.4839,-0.4831,-0.4835,-0.4771,-0.4733,-0.4801,-0.4579,-0.4572,-0.4402,-0.4403,-0.4081,-0.3848,-0.4496,-0.4495,-0.4493,0,-0.3973,-0.4166,-0.4173,-0.4243,-0.4378,-0.4434,-0.4533,-0.4625,-0.4665,-0.4707,-0.4742,-0.4807,-0.4785,-0.4798,-0.4788,-0.4777,-0.4744,-0.4725,-0.472,-0.4611,-0.4606,-0.4439,-0.4412,-0.4726,-0.4726,-0.4726,-0.4505,0,-0.4053,-0.4114,-0.4152,-0.4262,-0.4325,-0.4395,-0.4473,-0.4522,-0.454,-0.4572,-0.4623,-0.4625,-0.4652,-0.4668,-0.4669,-0.4712,-0.4643,-0.4632,-0.4575,-0.4637,-0.4527,-0.4519,-0.4594,-0.4592,-0.4591,-0.459,0,0,-0.3981,-0.4054,-0.4095,-0.4178,-0.4233,-0.4269,-0.4346,-0.4389,-0.4453,-0.4476,-0.445,-0.4508,-0.4511,-0.4569,-0.4606,-0.4601,-0.4539,-0.4587,-0.4618,-0.4622,-0.4624,-0.4524,-0.4518,-0.4587,-0.4587,-0.4586,-0.4586,0,-0.4007,-0.4025,-0.4071,-0.4135,-0.4217,-0.4257,-0.428,-0.4351,-0.4369,-0.4428,-0.4412,-0.4437,-0.4465,-0.4481,-0.4491,-0.4577,-0.449,-0.458,-0.4644,-0.4607,-0.4613,-0.4617,-0.452,-0.4515,-0.4583,-0.4583,-0.4583,0,-0.3995,-0.4042,-0.4052,-0.4131,-0.417,-0.4244,-0.4229,-0.4289,-0.434,-0.4299,-0.435,-0.4348,-0.4352,-0.4397,-0.4413,-0.4387,-0.4429,-0.4447,-0.4455,-0.4465,-0.4424,-0.4432,-0.4438,-0.4347,-0.4347,-0.4346,0,0,-0.4014,-0.4044,-0.4115,-0.4138,-0.4172,-0.4218,-0.4248,-0.4267,-0.4298,-0.4304,-0.4304,-0.4309,-0.4331,-0.4336,-0.4349,-0.4391,-0.4337,-0.4419,-0.443,-0.444,-0.4455,-0.4418,-0.4425,-0.4343,-0.4343,-0.4343,0,0,-0.4018,-0.4086,-0.4087,-0.4123,-0.4178,-0.4236,-0.4261,-0.4276,-0.4295,-0.4284,-0.4265,-0.4263,-0.43,-0.4289,-0.4257,-0.4333,-0.4287,-0.4293,-0.4339,-0.4353,-0.4363,-0.4377,-0.4206,0,0,0,0,0,-0.4062,-0.4084,-0.4084,-0.4096,-0.4162,-0.4238,-0.4249,-0.4263,-0.4248,-0.427,-0.4266,-0.4234,-0.4271,-0.4242,-0.4244,-0.4282,-0.431,-0.4316,-0.4321,-0.439,-0.4405,-0.4417,0,0,0,0,0,0,-0.4067,-0.4081,-0.4084,-0.4141,-0.4158,-0.4236,-0.4206,-0.4211,-0.4245,-0.4242,-0.4238,-0.4234,-0.4215,-0.4239,-0.4241,-0.4278,-0.4206,-0.4312,-0.4317,-0.4322,-0.4395,-0.4407,-0.4417,0,0,0,0,0,-0.4072,-0.4083,-0.4177,-0.4141,-0.4155,-0.419,-0.4204,-0.4207,-0.4228,-0.4224,-0.4221,-0.4238,-0.4216,-0.4216,-0.424,-0.4278,-0.4204,-0.4205,-0.4315,-0.4319,-0.4323,-0.4401,0,0,0,0,0,0,-0.4075,-0.4083,-0.4181,-0.4188,-0.4122,-0.4186,-0.4192,-0.4204,-0.4206,-0.4207,-0.4221,-0.4218,-0.4218,-0.4217,-0.4217,-0.4281,-0.4203,-0.4204,-0.4204,-0.4318,-0.4321,-0.4324,0,0,0,0,0,0,-0.4078,-0.4087,-0.4184,-0.4158,-0.4161,-0.4182,-0.4188,-0.4202,-0.4203,-0.42,-0.42,-0.4219,-0.4201,-0.4219,-0.4218,-0.4243,-0.4202,-0.4203,-0.4203,-0.4204,-0.4321,-0.4323,0,0,0,0,0,0,-0.4083,-0.4091,-0.4156,-0.4158,-0.4161,-0.4228,-0.4192,-0.4243,-0.4229,-0.4197,-0.4223,-0.4221,-0.4201,-0.4202,-0.4219,-0.4244,-0.4243,-0.4202,-0.4203,-0.4203,-0.4203,0,0,0,0,0,0,0,-0.4087,-0.4021,-0.4151,-0.4159,-0.4161,-0.4247,-0.4248,-0.4249,-0.4228,-0.4226,-0.4224,-0.4222,-0.4198,-0.4199,-0.4199,-0.4245,0,0,-0.4202,-0.4202,0,0,0,0,0,0,0,0,-0.4019,-0.402,-0.4151,-0.4153,-0.4155,-0.4247,-0.4248,-0.4249,-0.4228,-0.4226,-0.4224,-0.4223,-0.4198,-0.4199,-0.4199,0,0,0,0,0,0,0,0,0,0,0,0,0,0,0,-0.4151,-0.4153,0,-0.4247,-0.4248,-0.4248,-0.4227,-0.4226,-0.4225,-0.4223,-0.4198,-0.4199,-0.4199,0,0,0,0,0,0,0,0,0,0,0,0,0,0,0,0,0,0,0,0,0,0,0,0,0,0,0,0,0,0,0,0,0,0,0,0,0,0,0,0,0,0,0,0,0,0,0,0,0,0,0,0,0,0,0,0,0,0,0,0,0,0,0,0,0,0,0,0,0]}],[{"header":{"parameterUnit":"kt","parameterCategory":2,"dx":1,"dy":1,"la1":30.253999710083008,"la2":30.299108505249023,"lo1":-89.0895004272461,"lo2":-89.04439544677734,"nx":28,"ny":28,"refTime":"2022-10-29T21:00:00:Z","depth":"2","parameterNumber":3,"parameterNumberName":"V-component_of_CURRENTS"},"data":[-0.1841,-0.1985,-0.2055,-0.2184,-0.225,-0.2253,-0.2206,-0.2033,-0.1761,-0.1392,-0.1018,-0.058,0.0097,0.0463,0.0867,0.1161,0.1112,0.1151,0.1119,0.093,0.0915,0.1174,0.1045,0,0,0,0,0,-0.1792,-0.1892,-0.2021,-0.2138,-0.2191,-0.2196,-0.2134,-0.2031,-0.1847,-0.1489,-0.116,-0.0575,0.0011,0.0543,0.1094,0.1399,0.1345,0.1398,0.1288,0.1276,0.1266,0.1191,0.1378,0.1379,0.138,0.138,0,0,-0.1711,-0.1806,-0.1906,-0.2019,-0.2078,-0.2098,-0.2082,-0.1968,-0.1826,-0.1482,-0.1215,-0.0741,-0.0217,0.0556,0.0924,0.1239,0.123,0.1278,0.1269,0.126,0.1191,0.1129,0.1374,0.1374,0.1375,0.1375,0.1375,0,-0.1638,-0.1672,-0.1743,-0.1881,-0.1924,-0.195,-0.1912,-0.1869,-0.1632,-0.146,-0.1133,-0.0863,-0.023,0.0264,0.0783,0.0999,0.1038,0.1158,0.1096,0.0976,0.0906,0.0942,0.0919,0.1122,0.1121,0.112,0.112,0.1119,-0.1524,-0.1587,-0.1665,-0.1723,-0.1734,-0.1759,-0.1755,-0.1611,-0.1527,-0.1204,-0.1125,-0.0753,-0.0447,0.0149,0.0536,0.095,0.0927,0.1119,0.107,0.0933,0.0976,0.0952,0.093,0.1107,0.1109,0.111,0.1111,0,-0.1458,-0.147,-0.1546,-0.1549,-0.1557,-0.1596,-0.1519,-0.1479,-0.1322,-0.1179,-0.1124,-0.0787,-0.0434,-0.0116,0.0296,0.0477,0.0788,0.0908,0.0807,0.086,0.0923,0.0904,0.1152,0.1155,0.1158,0.1161,0.1163,0,-0.1342,-0.1386,-0.1398,-0.1433,-0.1489,-0.1391,-0.1382,-0.1303,-0.1147,-0.105,-0.0852,-0.07,-0.0387,-0.0128,0.0101,0.0456,0.0464,0.0681,0.075,0.0692,0.069,0.0636,0.0627,0.0699,0.0697,0.0695,0.0694,0,-0.124,-0.1261,-0.1327,-0.1318,-0.1272,-0.1262,-0.122,-0.1079,-0.1018,-0.0849,-0.0768,-0.0554,-0.0416,-0.0191,0.0103,0.008,0.0458,0.0471,0.0671,0.0675,0.074,0.0745,0.0692,0.0691,0.0691,0.069,0.0689,0,-0.1123,-0.1156,-0.1219,-0.1196,-0.1187,-0.1169,-0.1079,-0.1025,-0.0858,-0.0773,-0.0635,-0.0502,-0.0326,-0.0269,0.0047,-0.0034,0.0137,0.0284,0.0298,0.0395,0.0445,0.0582,0.0654,0.046,0.0457,0.0454,0.0452,0,-0.105,-0.1109,-0.1054,-0.1077,-0.1095,-0.0983,-0.094,-0.0847,-0.0745,-0.0652,-0.0494,-0.0392,-0.0317,-0.026,-0.0145,0.0045,0.0151,0.0033,0.0358,0.0368,0.0381,0.0438,0.0399,0.0609,0.0419,0.0422,0.0425,0,-0.098,-0.0967,-0.0971,-0.0983,-0.09,-0.0873,-0.0818,-0.0739,-0.0702,-0.0587,-0.052,-0.0365,-0.0291,-0.0211,-0.0107,-0.0001,0.0102,0.0063,0.0072,0.0135,0.0349,0.0387,0.0414,0.0155,0.0158,0.016,0.0398,0,-0.0915,-0.092,-0.0921,-0.0892,-0.0848,-0.0833,-0.0738,-0.0691,-0.0628,-0.0554,-0.044,-0.0303,-0.0181,-0.0132,-0.0068,0.0033,0.0073,0.0113,0.0152,0.0156,0.0262,0.0282,0.0077,0.0079,0.0081,0.0083,0,0,-0.0863,-0.0871,-0.0801,-0.0801,-0.0775,-0.0678,-0.0681,-0.0614,-0.0506,-0.0466,-0.0441,-0.0233,-0.0136,-0.0019,-0.0017,0.004,0.0116,0.0049,0.0148,0.0154,0.0161,0.026,0.0278,0.0086,0.0087,0.0087,0.0088,0,-0.0836,-0.0797,-0.081,-0.0767,-0.0709,-0.0652,-0.0647,-0.0559,-0.0516,-0.0442,-0.0356,-0.0266,-0.0125,-0.0035,0.0031,0.0056,0.0154,0.0086,0.0044,0.0159,0.0163,0.0167,0.0265,0.0279,0.0092,0.0092,0.0092,0,-0.0792,-0.0758,-0.0749,-0.0689,-0.0642,-0.0617,-0.0554,-0.0513,-0.0485,-0.0369,-0.0306,-0.0218,-0.009,-0.0009,0.0036,0.0059,0.0197,0.0145,0.0139,0.0141,0.0264,0.0268,0.0271,0.0225,0.0225,0.0224,0,0,-0.0775,-0.0764,-0.0688,-0.0677,-0.0655,-0.0573,-0.054,-0.0499,-0.0419,-0.0387,-0.0298,-0.0197,-0.0106,-0.0048,0.004,0.0123,0.0204,0.0154,0.0148,0.0142,0.0141,0.0261,0.0265,0.0223,0.0223,0.0223,0,0,-0.0756,-0.069,-0.067,-0.0654,-0.0596,-0.0502,-0.0487,-0.0443,-0.0367,-0.0362,-0.0252,-0.0222,-0.0141,-0.006,-0.0088,0.0053,0.0088,0.0096,-0.0018,-0.0024,-0.003,-0.006,-0.002,0,0,0,0,0,-0.0696,-0.0701,-0.0683,-0.0671,-0.058,-0.0515,-0.0498,-0.0436,-0.0418,-0.0407,-0.0321,-0.0266,-0.0053,-0.0075,-0.0045,-0.0033,0.021,0.0212,0.0214,0.0088,0.008,0.0074,0,0,0,0,0,0,-0.0691,-0.0678,-0.0682,-0.0594,-0.0572,-0.0514,-0.0475,-0.0457,-0.0418,-0.0412,-0.0285,-0.0262,-0.0188,-0.0084,-0.0058,-0.0048,-0.0028,0.0211,0.0213,0.0215,0.0085,0.0079,0.0074,0,0,0,0,0,-0.0686,-0.0675,-0.0557,-0.0592,-0.0573,-0.0488,-0.0475,-0.046,-0.0428,-0.0307,-0.0284,-0.0385,-0.019,-0.0162,-0.0068,-0.0063,-0.0045,-0.0036,0.0212,0.0214,0.0215,0.0082,0,0,0,0,0,0,-0.0682,-0.065,-0.055,-0.054,-0.0598,-0.0489,-0.0474,-0.0463,-0.0322,-0.0302,-0.0401,-0.0398,-0.0191,-0.0169,-0.0148,-0.0073,-0.0059,-0.0049,-0.0044,0.0213,0.0214,0.0216,0,0,0,0,0,0,-0.0655,-0.0643,-0.0545,-0.0557,-0.0547,-0.0491,-0.0478,-0.0383,-0.032,-0.0423,-0.0417,-0.0401,-0.0207,-0.0174,-0.0157,-0.0011,-0.0069,-0.006,-0.0054,-0.005,0.0214,0.0215,0,0,0,0,0,0,-0.0648,-0.0637,-0.0559,-0.0552,-0.0544,-0.0427,-0.0402,-0.0304,-0.0363,-0.0429,-0.0363,-0.0363,-0.0212,-0.0195,-0.0164,-0.0026,-0.0015,-0.0069,-0.0063,-0.0059,-0.0056,0,0,0,0,0,0,0,-0.0642,-0.074,-0.061,-0.0548,-0.054,-0.0449,-0.0446,-0.0444,-0.0363,-0.0363,-0.0363,-0.0363,-0.012,-0.011,-0.01,-0.0037,0,0,-0.007,-0.0066,0,0,0,0,0,0,0,0,-0.0742,-0.074,-0.061,-0.0608,-0.0606,-0.0449,-0.0447,-0.0444,-0.0363,-0.0363,-0.0363,-0.0363,-0.0117,-0.0109,-0.0101,0,0,0,0,0,0,0,0,0,0,0,0,0,0,0,-0.061,-0.0608,0,-0.0449,-0.0447,-0.0445,-0.0363,-0.0363,-0.0363,-0.0363,-0.0115,-0.0109,-0.0102,0,0,0,0,0,0,0,0,0,0,0,0,0,0,0,0,0,0,0,0,0,0,0,0,0,0,0,0,0,0,0,0,0,0,0,0,0,0,0,0,0,0,0,0,0,0,0,0,0,0,0,0,0,0,0,0,0,0,0,0,0,0,0,0,0,0,0,0,0]}]],[[{"header":{"parameterUnit":"kt","parameterCategory":2,"dx":1,"dy":1,"la1":30.253999710083008,"la2":30.299108505249023,"lo1":-89.0895004272461,"lo2":-89.04439544677734,"nx":28,"ny":28,"refTime":"2022-10-29T21:00:00:Z","depth":"4","parameterNumber":2,"parameterNumberName":"U-component_of_CURRENTS"},"data":[-0.2078,-0.2131,-0.2143,-0.2053,-0.2043,-0.215,-0.2266,-0.2428,-0.2352,-0.2575,-0.2482,-0.2669,-0.2528,-0.2706,-0.2412,-0.2416,-0.2516,-0.2529,-0.2522,-0.282,-0.2854,-0.2884,-0.2919,0,0,0,0,0,-0.2176,-0.2168,-0.2239,-0.2324,-0.2453,-0.2529,-0.274,-0.2884,-0.3098,-0.2902,-0.3025,-0.2861,-0.2694,-0.2714,-0.2498,-0.2749,-0.2759,-0.2494,-0.274,-0.2842,-0.2879,-0.29,0,0,0,0,0,0,-0.2326,-0.2348,-0.2497,-0.2595,-0.275,-0.2777,-0.2924,-0.2958,-0.3047,-0.3228,-0.3151,-0.314,-0.3226,-0.302,-0.2902,-0.2768,-0.2752,-0.2715,-0.2757,-0.2793,-0.2783,-0.269,-0.2266,0,0,0,0,0,-0.2464,-0.2581,-0.2687,-0.2841,-0.298,-0.3104,-0.3262,-0.3277,-0.3491,-0.3689,-0.3543,-0.3465,-0.3303,-0.3205,-0.3069,-0.2972,-0.3271,-0.3107,-0.3128,-0.3239,-0.3198,-0.3168,-0.3196,-0.3021,-0.3026,-0.3029,-0.3031,0,-0.2618,-0.2685,-0.2959,-0.3034,-0.3158,-0.3343,-0.3445,-0.3697,-0.3741,-0.3884,-0.384,-0.3822,-0.382,-0.3436,-0.3492,-0.3309,-0.3292,-0.3204,-0.3323,-0.326,-0.3216,-0.3236,-0.3253,-0.3061,-0.3058,-0.3056,-0.3053,0,-0.2685,-0.2858,-0.3003,-0.3258,-0.3346,-0.3443,-0.369,-0.3764,-0.3938,-0.398,-0.4017,-0.4104,-0.3984,-0.3971,-0.3874,-0.3764,-0.3608,-0.3492,-0.3814,-0.3772,-0.3304,-0.331,-0.311,-0.3099,-0.309,-0.3082,-0.3076,0,-0.2827,-0.2932,-0.3177,-0.3242,-0.3387,-0.3565,-0.3709,-0.3833,-0.3981,-0.4021,-0.4163,-0.4149,-0.4214,-0.4146,-0.4093,-0.3852,-0.3988,-0.3705,-0.3637,-0.3998,-0.4,-0.3951,-0.3949,-0.399,-0.3991,-0.3993,-0.3994,0,-0.2854,-0.3074,-0.3197,-0.3267,-0.3489,-0.3589,-0.3711,-0.3865,-0.3948,-0.4085,-0.4124,-0.4199,-0.4214,-0.4187,-0.4114,-0.4149,-0.4012,-0.404,-0.3723,-0.37,-0.3959,-0.3954,-0.3996,-0.3996,-0.3996,-0.3997,-0.3997,0,-0.2946,-0.3053,-0.3207,-0.34,-0.345,-0.3557,-0.3725,-0.3835,-0.3967,-0.4032,-0.4118,-0.4151,-0.4211,-0.4204,-0.4172,-0.4199,-0.4135,-0.409,-0.4082,-0.3795,-0.3713,-0.3846,-0.3925,-0.3926,-0.3926,-0.3927,-0.3928,0,-0.2919,-0.3075,-0.317,-0.3327,-0.3411,-0.3526,-0.3633,-0.3752,-0.384,-0.3936,-0.3997,-0.4086,-0.4106,-0.4148,-0.4168,-0.4139,-0.412,-0.4168,-0.3996,-0.399,-0.3719,-0.3729,-0.4133,-0.3937,-0.3936,-0.3935,-0.3934,0,-0.2877,-0.3074,-0.3094,-0.3174,-0.3327,-0.3394,-0.3524,-0.3645,-0.3723,-0.3834,-0.3917,-0.4039,-0.4059,-0.409,-0.4111,-0.4119,-0.4121,-0.4082,-0.4079,-0.3971,-0.404,-0.3771,-0.3739,-0.4128,-0.4129,-0.413,-0.3941,0,-0.2922,-0.3013,-0.306,-0.3182,-0.326,-0.3349,-0.3444,-0.3537,-0.3612,-0.3668,-0.3795,-0.3848,-0.3928,-0.3966,-0.3974,-0.4053,-0.3989,-0.3987,-0.3917,-0.4002,-0.3905,-0.39,-0.3927,-0.3925,-0.3924,-0.3922,0,0,-0.2848,-0.2935,-0.2995,-0.3077,-0.3145,-0.3216,-0.3301,-0.3371,-0.3495,-0.3545,-0.3558,-0.3709,-0.375,-0.3843,-0.3895,-0.3912,-0.3864,-0.3896,-0.3974,-0.398,-0.3986,-0.3897,-0.3895,-0.3919,-0.3919,-0.3918,-0.3918,0,-0.284,-0.2901,-0.2963,-0.3032,-0.314,-0.3185,-0.3226,-0.3326,-0.3385,-0.35,-0.3519,-0.36,-0.3696,-0.3731,-0.3756,-0.3882,-0.3807,-0.3908,-0.397,-0.3961,-0.3969,-0.3976,-0.3891,-0.389,-0.3914,-0.3914,-0.3914,0,-0.2802,-0.2859,-0.2893,-0.2992,-0.3053,-0.3131,-0.3138,-0.3235,-0.3308,-0.3308,-0.3437,-0.3475,-0.3511,-0.3607,-0.3656,-0.3624,-0.3731,-0.3738,-0.3747,-0.3741,-0.3728,-0.3739,-0.3749,-0.3613,-0.3612,-0.3612,0,0,-0.2795,-0.2854,-0.293,-0.2992,-0.3032,-0.3105,-0.3156,-0.3201,-0.327,-0.3309,-0.3361,-0.3419,-0.3475,-0.3517,-0.3564,-0.365,-0.3598,-0.3702,-0.3716,-0.3728,-0.3728,-0.3718,-0.373,-0.3608,-0.3608,-0.3608,0,0,-0.2784,-0.2867,-0.2892,-0.2963,-0.3035,-0.31,-0.3159,-0.3197,-0.3279,-0.33,-0.3318,-0.3332,-0.344,-0.3445,-0.3396,-0.355,-0.3491,-0.3502,-0.3547,-0.3564,-0.3578,-0.3565,-0.3354,0,0,0,0,0,-0.2806,-0.2853,-0.2874,-0.2895,-0.3003,-0.3085,-0.3102,-0.3164,-0.3186,-0.3233,-0.3288,-0.3272,-0.3426,-0.3382,-0.3394,-0.3459,-0.3561,-0.3569,-0.3577,-0.3655,-0.3674,-0.369,0,0,0,0,0,0,-0.2814,-0.2836,-0.2874,-0.2935,-0.2961,-0.3082,-0.3078,-0.3096,-0.3182,-0.319,-0.3262,-0.3271,-0.3272,-0.3376,-0.3386,-0.3449,-0.335,-0.3564,-0.3571,-0.3578,-0.3662,-0.3677,-0.369,0,0,0,0,0,-0.2821,-0.2838,-0.2996,-0.2936,-0.2958,-0.3049,-0.3078,-0.3093,-0.3171,-0.32,-0.3213,-0.3223,-0.3271,-0.3284,-0.3382,-0.3444,-0.3343,-0.3347,-0.3569,-0.3574,-0.3579,-0.3669,0,0,0,0,0,0,-0.2826,-0.2848,-0.3002,-0.3012,-0.2936,-0.3046,-0.3064,-0.309,-0.3176,-0.3191,-0.3154,-0.3158,-0.327,-0.328,-0.329,-0.3444,-0.3336,-0.334,-0.3343,-0.3573,-0.3578,-0.3581,0,0,0,0,0,0,-0.2839,-0.2855,-0.3007,-0.3003,-0.3013,-0.3042,-0.3058,-0.31,-0.3176,-0.3125,-0.3132,-0.3155,-0.3253,-0.3278,-0.3286,-0.3348,-0.3332,-0.3336,-0.3338,-0.334,-0.3577,-0.358,0,0,0,0,0,0,-0.2847,-0.2861,-0.3001,-0.3008,-0.3017,-0.313,-0.308,-0.3184,-0.3185,-0.3119,-0.3187,-0.3187,-0.3249,-0.3259,-0.3282,-0.3341,-0.3346,-0.3332,-0.3334,-0.3336,-0.3338,0,0,0,0,0,0,0,-0.2854,-0.2745,-0.2948,-0.3012,-0.302,-0.3105,-0.3107,-0.3109,-0.3185,-0.3186,-0.3186,-0.3187,-0.3309,-0.3313,-0.3318,-0.3335,0,0,-0.3331,-0.3333,0,0,0,0,0,0,0,0,-0.2741,-0.2744,-0.2948,-0.2951,-0.2953,-0.3105,-0.3107,-0.3109,-0.3186,-0.3186,-0.3186,-0.3187,-0.331,-0.3313,-0.3317,0,0,0,0,0,0,0,0,0,0,0,0,0,0,0,-0.2949,-0.2951,0,-0.3105,-0.3107,-0.3108,-0.3186,-0.3186,-0.3186,-0.3187,-0.3311,-0.3314,-0.3317,0,0,0,0,0,0,0,0,0,0,0,0,0,0,0,0,0,0,0,0,0,0,0,0,0,0,0,0,0,0,0,0,0,0,0,0,0,0,0,0,0,0,0,0,0,0,0,0,0,0,0,0,0,0,0,0,0,0,0,0,0,0,0,0,0,0,0,0,0]}],[{"header":{"parameterUnit":"kt","parameterCategory":2,"dx":1,"dy":1,"la1":30.253999710083008,"la2":30.299108505249023,"lo1":-89.0895004272461,"lo2":-89.04439544677734,"nx":28,"ny":28,"refTime":"2022-10-29T21:00:00:Z","depth":"4","parameterNumber":3,"parameterNumberName":"V-component_of_CURRENTS"},"data":[-0.1237,-0.1372,-0.1433,-0.1572,-0.1659,-0.1743,-0.1737,-0.1635,-0.1501,-0.1314,-0.1058,-0.0863,-0.0417,-0.0535,0.0036,0.0115,0.018,0.0657,0.066,0.0772,0.0771,0.0771,0.0641,0,0,0,0,0,-0.1197,-0.1294,-0.1424,-0.1548,-0.1646,-0.1697,-0.1687,-0.1635,-0.1481,-0.1302,-0.1171,-0.0856,-0.0401,-0.0173,0.0049,0.016,0.0473,0.0418,0.05,0.0771,0.0771,0.0645,0,0,0,0,0,0,-0.115,-0.1234,-0.1344,-0.1466,-0.1576,-0.162,-0.1618,-0.1511,-0.1439,-0.1161,-0.1063,-0.0678,-0.0439,-0.0059,0.0199,0.0428,0.0476,0.0504,0.0518,0.052,0.0381,0.0267,0.0343,0,0,0,0,0,-0.1091,-0.1142,-0.1212,-0.137,-0.1445,-0.1503,-0.1515,-0.1489,-0.1335,-0.124,-0.0956,-0.0687,-0.0364,-0.0022,0.0252,0.0505,0.0639,0.073,0.0731,0.0685,0.0627,0.0654,0.064,0.077,0.0769,0.0769,0.0769,0,-0.1014,-0.107,-0.1177,-0.1247,-0.1273,-0.1332,-0.1358,-0.1272,-0.1229,-0.1006,-0.0956,-0.0671,-0.0473,-0.0029,0.0239,0.0588,0.0637,0.0728,0.0678,0.0624,0.0655,0.0641,0.0627,0.0769,0.0769,0.0769,0.0769,0,-0.0974,-0.0994,-0.1072,-0.1102,-0.1127,-0.1178,-0.1163,-0.1154,-0.1047,-0.0967,-0.0928,-0.0658,-0.0384,-0.0117,0.0217,0.0336,0.0572,0.0656,0.0564,0.0601,0.0634,0.0621,0.0769,0.0769,0.0769,0.0769,0.0769,0,-0.0896,-0.0942,-0.0975,-0.1006,-0.1076,-0.1007,-0.1032,-0.0981,-0.0882,-0.0831,-0.0665,-0.056,-0.0296,-0.0092,0.0103,0.0351,0.0389,0.0512,0.0558,0.0492,0.048,0.0546,0.0539,0.0593,0.0591,0.059,0.0589,0,-0.0834,-0.0856,-0.0914,-0.091,-0.0888,-0.0895,-0.0875,-0.0783,-0.0751,-0.0634,-0.0585,-0.0414,-0.0311,-0.0127,0.0117,0.0104,0.0395,0.0411,0.0514,0.0513,0.0536,0.0531,0.0587,0.0587,0.0587,0.0586,0.0586,0,-0.0747,-0.0777,-0.0825,-0.0825,-0.0822,-0.0814,-0.0771,-0.0729,-0.0614,-0.0558,-0.0457,-0.0354,-0.0212,-0.0159,0.0091,0.0029,0.0169,0.0288,0.0298,0.0303,0.0337,0.0381,0.0422,0.042,0.0418,0.0416,0.0414,0,-0.0704,-0.0746,-0.0707,-0.0729,-0.0745,-0.0671,-0.0638,-0.0576,-0.0507,-0.0447,-0.0321,-0.0247,-0.0176,-0.0138,-0.0042,0.0106,0.0193,0.0105,0.0343,0.035,0.0291,0.0324,0.0203,0.0386,0.039,0.0393,0.0394,0,-0.066,-0.0654,-0.066,-0.0676,-0.0614,-0.06,-0.0553,-0.05,-0.0483,-0.0389,-0.0348,-0.0208,-0.0161,-0.0094,-0.0009,0.0077,0.0157,0.0125,0.0131,0.0172,0.0336,0.0296,0.0309,0.0192,0.0195,0.0196,0.0375,0,-0.0615,-0.0627,-0.0628,-0.0609,-0.0579,-0.057,-0.0501,-0.0469,-0.0428,-0.0375,-0.0288,-0.0175,-0.0081,-0.0033,0.0022,0.0104,0.0132,0.016,0.0182,0.0194,0.0273,0.0288,0.0137,0.0138,0.0139,0.0141,0,0,-0.0588,-0.0599,-0.0559,-0.0556,-0.054,-0.0479,-0.0479,-0.0428,-0.0349,-0.0324,-0.0304,-0.0137,-0.0055,0.0043,0.0054,0.0103,0.0156,0.0106,0.0188,0.0192,0.0197,0.0272,0.0284,0.0143,0.0143,0.0144,0.0144,0,-0.0567,-0.0555,-0.0566,-0.0537,-0.0501,-0.0461,-0.0459,-0.0398,-0.0368,-0.0308,-0.0244,-0.0172,-0.0052,0.0023,0.0078,0.0112,0.018,0.0141,0.0111,0.0196,0.0198,0.0202,0.0275,0.0285,0.0147,0.0147,0.0147,0,-0.054,-0.0522,-0.0522,-0.0487,-0.0457,-0.0435,-0.0399,-0.0373,-0.0348,-0.0267,-0.0215,-0.0146,-0.004,0.0033,0.0072,0.0087,0.0206,0.0168,0.0164,0.0161,0.0251,0.0254,0.0257,0.0218,0.0217,0.0217,0,0,-0.0526,-0.0527,-0.0478,-0.0478,-0.0464,-0.0411,-0.0389,-0.0363,-0.0305,-0.0282,-0.0214,-0.0133,-0.0056,-0.0009,0.0065,0.0139,0.0196,0.017,0.0167,0.0164,0.016,0.0247,0.0251,0.0215,0.0215,0.0215,0,0,-0.0509,-0.0473,-0.0466,-0.0464,-0.0425,-0.0358,-0.035,-0.0323,-0.0267,-0.0267,-0.0183,-0.016,-0.0091,-0.0026,-0.0055,0.0075,0.0097,0.0105,0.0017,0.0014,0.0011,-0.0018,-0.0005,0,0,0,0,0,-0.0471,-0.0479,-0.0474,-0.0468,-0.0414,-0.0365,-0.0354,-0.0316,-0.031,-0.0302,-0.0238,-0.0198,-0.0021,-0.0045,-0.0021,-0.0004,0.0198,0.0201,0.0204,0.0108,0.0105,0.0101,0,0,0,0,0,0,-0.0468,-0.0462,-0.0473,-0.0412,-0.0399,-0.0365,-0.0343,-0.0331,-0.031,-0.0307,-0.0212,-0.0195,-0.0136,-0.0052,-0.0032,-0.0017,-0.0011,0.0199,0.0202,0.0204,0.0107,0.0104,0.0101,0,0,0,0,0,-0.0466,-0.0461,-0.0394,-0.041,-0.0399,-0.0346,-0.0343,-0.0334,-0.0316,-0.0223,-0.0207,-0.0292,-0.0137,-0.0115,-0.004,-0.0028,-0.0025,-0.0018,0.0201,0.0203,0.0205,0.0106,0,0,0,0,0,0,-0.0464,-0.044,-0.039,-0.0384,-0.0418,-0.0347,-0.0338,-0.0336,-0.0232,-0.0218,-0.0298,-0.0296,-0.0138,-0.012,-0.0104,-0.0036,-0.0036,-0.0029,-0.0024,0.0202,0.0204,0.0205,0,0,0,0,0,0,-0.0442,-0.0436,-0.0387,-0.0399,-0.0393,-0.0347,-0.034,-0.0262,-0.0229,-0.0311,-0.0307,-0.0298,-0.0149,-0.0124,-0.0111,0.0008,-0.0045,-0.0037,-0.0033,-0.0029,0.0204,0.0205,0,0,0,0,0,0,-0.0438,-0.0432,-0.04,-0.0396,-0.0391,-0.0313,-0.0274,-0.0213,-0.0272,-0.0314,-0.0273,-0.0273,-0.0152,-0.0139,-0.0116,-0.0003,0.0006,-0.0044,-0.004,-0.0036,-0.0034,0,0,0,0,0,0,0,-0.0434,-0.0495,-0.0431,-0.0393,-0.0389,-0.0324,-0.0322,-0.032,-0.0272,-0.0272,-0.0273,-0.0273,-0.0085,-0.0078,-0.007,-0.0012,0,0,-0.0045,-0.0042,0,0,0,0,0,0,0,0,-0.0496,-0.0495,-0.0431,-0.043,-0.0429,-0.0323,-0.0322,-0.032,-0.0272,-0.0272,-0.0273,-0.0273,-0.0083,-0.0077,-0.0071,0,0,0,0,0,0,0,0,0,0,0,0,0,0,0,-0.0431,-0.043,0,-0.0323,-0.0322,-0.032,-0.0272,-0.0272,-0.0273,-0.0273,-0.0082,-0.0076,-0.0071,0,0,0,0,0,0,0,0,0,0,0,0,0,0,0,0,0,0,0,0,0,0,0,0,0,0,0,0,0,0,0,0,0,0,0,0,0,0,0,0,0,0,0,0,0,0,0,0,0,0,0,0,0,0,0,0,0,0,0,0,0,0,0,0,0,0,0,0,0]}]]]